#timestamp,LO_Frequency,Hit,StdDev 
1583838735.7,286047007.9,P
1583838755.6,286047007.7,P
1583838775.4,286047010.2,P
1583838795.2,286047010.8,Y
1583838815.1,286047000.8,P
1583838816.0,286047000.8,N
1583838835.8,286047001.5,N
1583838855.6,286047004.1,N
1583838875.5,286047004.1,N
1583838895.3,286047003.1,N
1583838915.2,286047002.9,N
1583838935.9,286047007.4,Y
1583838955.7,286047002.0,P
1583838975.6,286047000.6,N
1583838995.4,286047000.5,N
1583839015.3,286047000.5,N
1583839035.1,286047000.5,N
1583839036.0,286047000.5,N
1583839055.8,286046999.8,N
1583839075.7,286046999.9,N
1583839095.5,286047000.6,N
1583839115.3,286046998.2,N
1583839135.2,286046997.3,N
1583839155.0,286046998.0,N
1583839155.9,286046998.0,N
1583839175.8,286046997.6,N
1583839195.6,286046995.6,N
1583839215.4,286046997.7,N
1583839235.3,286046994.9,N
1583839255.1,286046997.9,N
1583839275.9,286046993.6,Y
1583839295.7,286046994.0,P
1583839315.5,286046994.7,N
1583839335.4,286046994.6,N
1583839355.2,286046994.4,N
1583839375.0,286046993.9,Y
1583839375.9,286046993.9,P
1583839395.8,286046999.2,N
1583839415.6,286047000.6,N
1583839435.5,286046999.8,N
1583839455.3,286046999.9,N
1583839475.1,286047000.7,N
1583839495.9,286046998.6,N
1583839515.7,286046997.1,N
1583839535.5,286046994.9,N
1583839555.4,286046996.7,N
1583839575.2,286046997.9,N
1583839595.1,286046996.5,N
1583839596.0,286046996.5,N
1583839615.8,286046997.3,N
1583839635.6,286046997.7,N
1583839655.5,286046996.9,N
1583839675.3,286046997.3,N
1583839695.1,286046995.6,N
1583839715.9,286046995.6,N
1583839735.7,286046996.6,N
1583839755.6,286046998.7,N
1583839775.4,286046999.5,N
1583839795.2,286046998.8,N
1583839815.1,286047001.1,N
1583839816.0,286047001.1,N
1583839835.8,286047001.0,N
1583839855.7,286046998.7,N
1583839875.5,286046998.2,N
1583839895.3,286047002.2,N
1583839915.2,286047003.7,N
1583839935.0,286047004.2,N
1583839935.9,286047004.2,N
1583839955.8,286047001.8,N
1583839975.6,286047004.4,N
1583839995.4,286047003.8,N
1583840015.3,286047001.4,N
1583840035.1,286047003.5,N
1583840055.8,286047005.3,N
1583840075.7,286047007.1,N
1583840095.5,286047005.7,N
1583840115.4,286047005.7,N
1583840135.2,286047003.5,N
1583840155.0,286047001.4,N
1583840155.9,286047001.4,N
1583840175.8,286047003.8,N
1583840195.6,286047005.6,N
1583840215.4,286047003.3,N
1583840235.3,286047003.3,N
1583840255.1,286047004.3,N
1583840275.9,286047003.2,N
1583840295.7,286047004.2,N
1583840315.5,286047001.4,N
1583840335.4,286047002.3,N
1583840355.2,286047002.4,N
1583840375.1,286047002.8,N
1583840376.0,286047002.8,N
1583840395.8,286047002.7,N
1583840415.6,286047000.5,N
1583840435.5,286047000.5,N
1583840455.3,286047000.5,N
1583840475.1,286047001.0,N
1583840495.9,286047000.2,N
1583840515.7,286047001.9,N
1583840535.6,286047002.0,N
1583840555.4,286047001.4,N
1583840575.2,286047002.3,N
1583840595.1,286046999.8,N
1583840596.0,286046999.8,N
1583840615.8,286047000.1,N
1583840635.6,286047000.9,N
1583840655.5,286046999.4,N
1583840675.3,286046996.9,N
1583840695.2,286046996.9,N
1583840715.9,286046997.3,N
1583840735.7,286046997.8,N
1583840755.6,286046995.2,N
1583840775.4,286046995.0,N
1583840795.3,286046995.1,N
1583840815.1,286046996.7,N
1583840816.0,286046996.7,N
1583840835.8,286046999.6,N
1583840855.7,286046999.6,N
1583840875.5,286046997.1,N
1583840895.3,286046995.7,N
1583840915.2,286046996.1,N
1583840935.0,286046996.4,N
1583840935.9,286046996.4,N
1583840955.8,286046994.6,N
1583840975.6,286046991.8,Y
1583840995.4,286046994.1,P
1583841015.3,286046993.9,N
1583841035.1,286046992.2,P
1583841055.8,286046994.4,N
1583841075.7,286046992.1,Y
1583841095.5,286046997.7,P
1583841115.4,286046996.8,N
1583841135.2,286046999.2,N
1583841155.0,286047000.8,N
1583841155.9,286047000.8,N
1583841175.8,286046998.4,N
1583841195.6,286046998.7,N
1583841215.5,286046998.3,N
1583841235.3,286046999.5,N
1583841255.1,286046999.5,N
1583841275.9,286046999.1,N
1583841295.7,286046999.0,N
1583841315.5,286046999.4,N
1583841335.4,286046999.6,N
1583841355.2,286046997.7,N
1583841375.1,286046996.0,N
1583841376.0,286046996.0,N
1583841395.8,286046994.5,Y
1583841415.6,286046995.3,P
1583841435.5,286046995.7,N
1583841455